KD6VEX-1 Weather Reports


time (UTC)temp
C
wind
direction
speed
KPH
gust
KPH
rain 1hr
cm
rain 24hr
cm
rain mn
cm
humidity
%
barometer
mb
20260506185340 23 96 1.6 6.4 0.00 0.00 0.00 49 1017.8
20260506184840 23 0 0.0 8.0 0.00 0.00 0.00 50 1017.9
20260506184340 22 112 3.2 8.0 0.00 0.00 0.00 52 1018.0
20260506183841 22 111 1.6 8.0 0.00 0.00 0.00 52 1018.0
20260506183340 22 115 1.6 6.4 0.00 0.00 0.00 52 1018.1
20260506182840 22 0 0.0 6.4 0.00 0.00 0.00 54 1018.0
20260506182341 22 107 1.6 8.0 0.00 0.00 0.00 55 1018.2
20260506181840 21 51 1.6 8.0 0.00 0.00 0.00 54 1018.3
20260506181340 21 93 1.6 6.4 0.00 0.00 0.00 55 1018.3
20260506180842 21 91 1.6 4.8 0.00 0.00 0.00 54 1018.4
20260506175840 21 0 0.0 6.4 0.00 0.00 0.00 54 1018.5
20260506175340 21 0 0.0 6.4 0.00 0.00 0.00 55 1018.4
20260506174840 21 0 0.0 4.8 0.00 0.00 0.00 56 1018.4
20260506174340 20 0 0.0 3.2 0.00 0.00 0.00 58 1018.4
20260506173841 20 0 0.0 6.4 0.00 0.00 0.00 57 1018.4
20260506173340 19 109 1.6 6.4 0.00 0.00 0.00 59 1018.4
20260506172840 20 123 1.6 6.4 0.00 0.00 0.00 59 1018.5
20260506172340 20 51 1.6 4.8 0.00 0.00 0.00 60 1018.4
20260506171840 19 0 0.0 3.2 0.00 0.00 0.00 60 1018.5
20260506171340 18 0 0.0 3.2 0.00 0.00 0.00 62 1018.6
20260506170840 18 0 0.0 4.8 0.00 0.00 0.00 62 1018.5
20260506170340 18 41 1.6 4.8 0.00 0.00 0.00 64 1018.5
20260506165840 17 0 0.0 4.8 0.00 0.00 0.00 65 1018.5
20260506165340 17 53 1.6 4.8 0.00 0.00 0.00 65 1018.5
20260506164841 17 45 1.6 4.8 0.00 0.00 0.00 66 1018.5
20260506164340 17 0 0.0 3.2 0.00 0.00 0.00 66 1018.5
20260506163840 17 0 0.0 3.2 0.00 0.00 0.00 67 1018.4
20260506163341 17 0 0.0 4.8 0.00 0.00 0.00 68 1018.4
20260506162840 17 77 1.6 6.4 0.00 0.00 0.00 68 1018.5
20260506162340 16 0 0.0 6.4 0.00 0.00 0.00 69 1018.5
20260506161840 16 0 0.0 6.4 0.00 0.00 0.00 71 1018.5
20260506161340 16 0 0.0 6.4 0.00 0.00 0.00 71 1018.7
20260506160840 16 0 0.0 3.2 0.00 0.00 0.00 72 1018.7
20260506160340 15 0 0.0 4.8 0.00 0.00 0.00 72 1018.6
20260506155840 15 0 0.0 4.8 0.00 0.00 0.00 73 1018.7
20260506155340 15 0 0.0 3.2 0.00 0.00 0.00 75 1018.7
20260506154840 15 0 0.0 3.2 0.00 0.00 0.00 76 1018.7
20260506154340 14 0 0.0 3.2 0.00 0.00 0.00 77 1018.6
20260506153340 13 0 0.0 1.6 0.00 0.00 0.00 79 1018.6
20260506152840 13 0 0.0 1.6 0.00 0.00 0.00 80 1018.5
20260506152340 13 0 0.0 3.2 0.00 0.00 0.00 81 1018.6
20260506151840 13 0 0.0 3.2 0.00 0.00 0.00 82 1018.7
20260506151340 12 0 0.0 3.2 0.00 0.00 0.00 82 1018.8
20260506150840 12 0 0.0 3.2 0.00 0.00 0.00 83 1018.8
20260506150340 12 0 0.0 3.2 0.00 0.00 0.00 83 1018.7
20260506145840 12 0 0.0 3.2 0.00 0.00 0.00 83 1018.7
20260506145340 12 0 0.0 3.2 0.00 0.00 0.00 84 1018.6
20260506144840 12 0 0.0 1.6 0.00 0.00 0.00 84 1018.6
20260506144340 12 0 0.0 1.6 0.00 0.00 0.00 84 1018.6
20260506143840 12 0 0.0 1.6 0.00 0.00 0.00 84 1018.6
20260506143340 12 0 0.0 1.6 0.00 0.00 0.00 84 1018.6
20260506142840 12 0 0.0 1.6 0.00 0.00 0.00 84 1018.5
20260506142340 12 0 0.0 1.6 0.00 0.00 0.00 84 1018.4
20260506141840 12 0 0.0 1.6 0.00 0.00 0.00 85 1018.5
20260506141340 11 0 0.0 1.6 0.00 0.00 0.00 85 1018.4
20260506140840 11 0 0.0 1.6 0.00 0.00 0.00 85 1018.4
20260506140340 11 0 0.0 1.6 0.00 0.00 0.00 86 1018.4
20260506135840 11 0 0.0 1.6 0.00 0.00 0.00 86 1018.3
20260506135340 11 0 0.0 1.6 0.00 0.00 0.00 86 1018.3
20260506134840 11 0 0.0 0.0 0.00 0.00 0.00 87 1018.2
20260506134340 11 0 0.0 0.0 0.00 0.00 0.00 87 1018.3
20260506133840 11 0 0.0 0.0 0.00 0.00 0.00 87 1018.3
20260506133340 11 0 0.0 0.0 0.00 0.00 0.00 87 1018.3
20260506132840 11 0 0.0 1.6 0.00 0.00 0.00 87 1018.2
20260506132340 11 0 0.0 1.6 0.00 0.00 0.00 87 1018.1
20260506131840 11 0 0.0 0.0 0.00 0.00 0.00 87 1018.1
20260506131340 11 0 0.0 1.6 0.00 0.00 0.00 87 1018.1
20260506130840 11 0 0.0 1.6 0.00 0.00 0.00 87 1018.0
20260506130340 11 0 0.0 0.0 0.00 0.00 0.00 86 1018.0
20260506125840 11 0 0.0 0.0 0.00 0.00 0.00 85 1017.9
20260506125340 11 0 0.0 0.0 0.00 0.00 0.00 85 1017.8
20260506124840 11 0 0.0 0.0 0.00 0.00 0.00 85 1017.9
20260506124340 11 0 0.0 1.6 0.00 0.00 0.00 85 1017.8
20260506123840 11 0 0.0 1.6 0.00 0.00 0.00 85 1017.8
20260506123340 11 0 0.0 1.6 0.00 0.00 0.00 85 1017.9
20260506122840 11 0 0.0 1.6 0.00 0.00 0.00 85 1017.9
20260506122340 11 0 0.0 3.2 0.00 0.00 0.00 85 1017.8
20260506121840 11 0 0.0 3.2 0.00 0.00 0.00 85 1017.9
20260506121340 11 0 0.0 3.2 0.00 0.00 0.00 86 1017.9
20260506120840 11 0 0.0 0.0 0.00 0.00 0.00 86 1017.8
20260506120340 11 0 0.0 0.0 0.00 0.00 0.00 86 1017.8
20260506115840 11 0 0.0 0.0 0.00 0.00 0.00 86 1017.9
20260506115340 11 0 0.0 1.6 0.00 0.00 0.00 86 1017.9
20260506114840 11 0 0.0 1.6 0.00 0.00 0.00 86 1018.0
20260506114340 11 0 0.0 0.0 0.00 0.00 0.00 85 1018.1
20260506113840 11 0 0.0 1.6 0.00 0.00 0.00 85 1018.1
20260506113340 11 0 0.0 1.6 0.00 0.00 0.00 85 1018.0
20260506112840 11 0 0.0 1.6 0.00 0.00 0.00 85 1017.9
20260506112340 11 0 0.0 0.0 0.00 0.00 0.00 85 1018.0
20260506111840 11 0 0.0 0.0 0.00 0.00 0.00 85 1018.0
20260506111340 11 0 0.0 1.6 0.00 0.00 0.00 86 1018.0
20260506110840 11 0 0.0 1.6 0.00 0.00 0.00 86 1017.9
20260506110340 11 0 0.0 1.6 0.00 0.00 0.00 86 1018.0
20260506105841 11 0 0.0 0.0 0.00 0.00 0.00 86 1018.0
20260506105340 11 0 0.0 0.0 0.00 0.00 0.00 86 1018.0
20260506104840 11 0 0.0 1.6 0.00 0.00 0.00 86 1018.0
20260506104340 11 0 0.0 1.6 0.00 0.00 0.00 86 1018.0
20260506103840 11 0 0.0 0.0 0.00 0.00 0.00 86 1017.9
20260506103340 11 0 0.0 0.0 0.00 0.00 0.00 86 1017.9
20260506102840 11 0 0.0 1.6 0.00 0.00 0.00 85 1017.9
20260506102340 11 0 0.0 1.6 0.00 0.00 0.00 85 1017.9
20260506101840 11 0 0.0 1.6 0.00 0.00 0.00 85 1017.9
20260506101340 11 0 0.0 1.6 0.00 0.00 0.00 86 1017.9
20260506100340 12 0 0.0 1.6 0.00 0.00 0.00 85 1017.9
20260506095840 12 0 0.0 0.0 0.00 0.00 0.00 85 1017.8
20260506095340 12 0 0.0 0.0 0.00 0.00 0.00 85 1017.8
20260506094840 12 0 0.0 1.6 0.00 0.00 0.00 85 1017.9
20260506094340 12 0 0.0 1.6 0.00 0.00 0.00 86 1017.9
20260506093840 12 0 0.0 1.6 0.00 0.00 0.00 86 1017.9
20260506093340 12 0 0.0 1.6 0.00 0.00 0.00 86 1017.9
20260506092840 12 0 0.0 1.6 0.00 0.00 0.00 86 1017.9
20260506092340 12 0 0.0 1.6 0.00 0.00 0.00 86 1017.8
20260506091840 12 0 0.0 1.6 0.00 0.00 0.00 86 1017.9
20260506091341 12 0 0.0 1.6 0.00 0.00 0.00 86 1018.0
20260506090840 11 0 0.0 1.6 0.00 0.00 0.00 86 1018.0
20260506090340 11 0 0.0 1.6 0.00 0.00 0.00 86 1018.0
20260506085840 11 0 0.0 1.6 0.00 0.00 0.00 86 1018.0
20260506085340 11 0 0.0 3.2 0.00 0.00 0.00 86 1018.2
20260506084840 11 0 0.0 3.2 0.00 0.00 0.00 87 1018.2
20260506084340 11 0 0.0 3.2 0.00 0.00 0.00 87 1018.2
20260506083840 11 0 0.0 3.2 0.00 0.00 0.00 87 1018.2
20260506083340 11 0 0.0 3.2 0.00 0.00 0.00 87 1018.3
20260506082840 11 0 0.0 0.0 0.00 0.00 0.00 87 1018.2
20260506082340 11 0 0.0 1.6 0.00 0.00 0.00 87 1018.3
20260506081842 11 0 0.0 1.6 0.00 0.00 0.00 87 1018.2
20260506081340 11 0 0.0 1.6 0.00 0.00 0.00 87 1018.2
20260506080840 11 0 0.0 1.6 0.00 0.00 0.00 87 1018.2
20260506080340 11 0 0.0 1.6 0.00 0.00 0.00 86 1018.2
20260506073340 11 0 0.0 0.0 0.00 0.00 0.00 89 1018.1
20260506072841 10 0 0.0 0.0 0.00 0.00 0.00 90 1018.1
20260506072340 10 0 0.0 0.0 0.00 0.00 0.00 90 1018.1
20260506071840 10 0 0.0 0.0 0.00 0.00 0.00 89 1018.0
20260506070840 10 0 0.0 0.0 0.00 0.00 0.00 89 1018.0
20260506062225 11 0 0.0 0.0 0.00 0.00 0.00 87 1017.6
20260506061725 11 0 0.0 0.0 0.00 0.00 0.00 86 1017.7
20260506061225 11 0 0.0 0.0 0.00 0.00 0.00 86 1017.7
20260506060725 11 0 0.0 1.6 0.00 0.00 0.00 85 1017.6
20260506060225 11 0 0.0 1.6 0.00 0.00 0.00 85 1017.6
20260506051035 12 0 0.0 1.6 0.00 0.00 0.00 83 1017.3
20260506050536 12 0 0.0 1.6 0.00 0.00 0.00 82 1017.4
20260506045036 12 0 0.0 1.6 0.00 0.00 0.00 81 1017.1
20260506044535 12 0 0.0 1.6 0.00 0.00 0.00 81 1017.1
20260506044035 12 0 0.0 3.2 0.00 0.00 0.00 80 1017.0
20260506043535 12 0 0.0 6.4 0.00 0.00 0.00 80 1016.9
20260506043035 12 0 0.0 6.4 0.00 0.00 0.00 80 1016.8
20260506042535 12 0 0.0 1.6 0.00 0.00 0.00 79 1016.8
20260506042035 12 0 0.0 6.4 0.00 0.00 0.00 79 1016.7
20260506041535 13 0 0.0 6.4 0.00 0.00 0.00 78 1016.7
20260506041035 13 0 0.0 1.6 0.00 0.00 0.00 77 1016.6
20260506040535 13 0 0.0 3.2 0.00 0.00 0.00 77 1016.5
20260506040035 13 0 0.0 4.8 0.00 0.00 0.00 76 1016.4
20260506035535 13 0 0.0 4.8 0.00 0.00 0.00 76 1016.3
20260506035035 13 0 0.0 4.8 0.00 0.00 0.00 75 1016.2
20260506034535 13 0 0.0 4.8 0.00 0.00 0.00 75 1016.1
20260506034036 13 0 0.0 4.8 0.00 0.00 0.00 74 1016.0
20260506033535 14 0 0.0 8.0 0.00 0.00 0.00 74 1015.9
20260506033035 14 86 1.6 8.0 0.00 0.00 0.00 73 1015.9
20260506032535 14 0 0.0 4.8 0.00 0.00 0.00 72 1015.7
20260506032035 15 0 0.0 8.0 0.00 0.00 0.00 71 1015.6
20260506031535 15 104 1.6 8.0 0.00 0.00 0.00 71 1015.5
20260506031035 15 0 0.0 6.4 0.00 0.00 0.00 70 1015.4
20260506030536 15 174 1.6 6.4 0.00 0.00 0.00 70 1015.4
20260506030035 15 0 0.0 6.4 0.00 0.00 0.00 69 1015.3
20260506025535 15 0 0.0 4.8 0.00 0.00 0.00 68 1015.2
20260506025036 15 0 0.0 4.8 0.00 0.00 0.00 67 1015.1
20260506024535 15 0 0.0 6.4 0.00 0.00 0.00 67 1015.0
20260506024035 16 0 0.0 8.0 0.00 0.00 0.00 66 1014.9
20260506023535 16 0 0.0 8.0 0.00 0.00 0.00 66 1014.8
20260506023035 16 0 0.0 8.0 0.00 0.00 0.00 65 1014.7
20260506022535 16 97 1.6 8.0 0.00 0.00 0.00 65 1014.7
20260506022036 16 105 3.2 8.0 0.00 0.00 0.00 63 1014.6
20260506021537 17 59 1.6 9.7 0.00 0.00 0.00 62 1014.6
20260506021035 17 90 1.6 9.7 0.00 0.00 0.00 62 1014.7
20260506020537 17 163 1.6 6.4 0.00 0.00 0.00 61 1014.6
20260506020035 17 0 0.0 6.4 0.00 0.00 0.00 61 1014.5
20260506015535 17 358 3.2 9.7 0.00 0.00 0.00 60 1014.5
20260506015036 17 0 0.0 9.7 0.00 0.00 0.00 60 1014.3
20260506014535 18 97 1.6 8.0 0.00 0.00 0.00 57 1014.3
20260506014035 19 4 1.6 11.3 0.00 0.00 0.00 55 1014.2
20260506013537 19 0 0.0 11.3 0.00 0.00 0.00 55 1014.2
20260506013035 19 105 1.6 6.4 0.00 0.00 0.00 54 1014.1
20260506012537 20 78 3.2 6.4 0.00 0.00 0.00 52 1014.3
20260506011535 20 74 1.6 9.7 0.00 0.00 0.00 52 1014.2
20260506011035 20 128 1.6 9.7 0.00 0.00 0.00 52 1014.3
20260506010537 20 91 3.2 9.7 0.00 0.00 0.00 52 1014.3
20260506010035 20 128 1.6 9.7 0.00 0.00 0.00 52 1014.2
20260506005535 20 109 1.6 11.3 0.00 0.00 0.00 51 1014.1
20260506005036 20 93 3.2 11.3 0.00 0.00 0.00 50 1014.1
20260506004535 20 115 1.6 12.9 0.00 0.00 0.00 50 1014.1
20260506004035 21 117 1.6 12.9 0.00 0.00 0.00 49 1014.0
20260506003536 21 103 1.6 9.7 0.00 0.00 0.00 50 1013.9
20260506003035 21 5 1.6 9.7 0.00 0.00 0.00 49 1014.0
20260506002535 21 93 1.6 12.9 0.00 0.00 0.00 49 1014.0
20260506001535 21 115 1.6 11.3 0.00 0.00 0.00 49 1013.8
20260506001035 21 45 3.2 11.3 0.00 0.00 0.00 48 1013.8
20260506000536 21 110 3.2 16.1 0.00 0.00 0.00 48 1013.8
20260506000035 21 23 4.8 16.1 0.00 0.00 0.00 47 1013.7
20260505235535 21 105 3.2 8.0 0.00 0.00 0.00 47 1013.6
20260505235036 21 103 1.6 8.0 0.00 0.00 0.00 48 1013.7
20260505234535 21 112 3.2 8.0 0.00 0.00 0.00 48 1013.7
20260505234035 21 70 1.6 4.8 0.00 0.00 0.00 46 1013.8
20260505233445 21 86 3.2 9.7 0.00 0.00 0.00 46 1013.8
20260505232940 21 112 1.6 8.0 0.00 0.00 0.00 45 1013.8
20260505232442 21 94 1.6 8.0 0.00 0.00 0.00 45 1013.9
20260505231942 21 95 1.6 9.7 0.00 0.00 0.00 45 1013.8
20260505231442 21 0 0.0 9.7 0.00 0.00 0.00 46 1013.9
20260505230941 21 124 3.2 14.5 0.00 0.00 0.00 46 1014.0
20260505230442 21 108 3.2 14.5 0.00 0.00 0.00 46 1014.1
20260505225616 21 127 1.6 9.7 0.00 0.00 0.00 47 1014.0
20260505225116 21 104 3.2 9.7 0.00 0.00 0.00 47 1014.0
20260505224616 21 119 3.2 8.0 0.00 0.00 0.00 48 1014.0
20260505224116 21 103 1.6 9.7 0.00 0.00 0.00 47 1014.1
20260505223116 21 105 3.2 11.3 0.00 0.00 0.00 47 1014.1
20260505222616 21 67 3.2 9.7 0.00 0.00 0.00 48 1013.9
20260505222116 21 58 1.6 8.0 0.00 0.00 0.00 49 1014.1
20260505221616 21 114 1.6 8.0 0.00 0.00 0.00 49 1014.2
20260505220541 20 120 1.6 8.0 0.00 0.00 0.00 52 1014.3
20260505220041 19 64 1.6 8.0 0.00 0.00 0.00 52 1014.3
20260505215541 19 101 1.6 11.3 0.00 0.00 0.00 52 1014.4
20260505215041 19 73 1.6 11.3 0.00 0.00 0.00 52 1014.3
20260505214541 19 71 3.2 17.7 0.00 0.00 0.00 51 1014.4
20260505214041 19 146 1.6 17.7 0.00 0.00 0.00 52 1014.4
20260505213542 20 91 1.6 11.3 0.00 0.00 0.00 51 1014.4
20260505213041 20 113 3.2 14.5 0.00 0.00 0.00 50 1014.4
20260505212541 20 120 3.2 14.5 0.00 0.00 0.00 51 1014.4
20260505211541 20 69 4.8 19.3 0.00 0.00 0.00 50 1014.3
20260505211041 20 130 3.2 14.5 0.00 0.00 0.00 50 1014.4
20260505210541 20 118 3.2 11.3 0.00 0.00 0.00 49 1014.2
20260505210041 21 176 1.6 8.0 0.00 0.00 0.00 49 1014.3
20260505205541 21 118 3.2 9.7 0.00 0.00 0.00 49 1014.3
20260505205042 20 308 1.6 9.7 0.00 0.00 0.00 49 1014.3
20260505204146 21 351 4.8 16.1 0.00 0.00 0.00 46 1014.3
20260505203648 22 206 3.2 14.5 0.00 0.00 0.00 46 1014.3
20260505203146 21 42 1.6 14.5 0.00 0.00 0.00 46 1014.3
20260505202646 22 90 3.2 16.1 0.00 0.00 0.00 42 1014.3
20260505202146 22 92 4.8 16.1 0.00 0.00 0.00 44 1014.4
20260505201646 22 134 1.6 11.3 0.00 0.00 0.00 44 1014.4
20260505201146 21 86 1.6 12.9 0.00 0.00 0.00 46 1014.5
20260505200646 21 338 3.2 12.9 0.00 0.00 0.00 46 1014.4
20260505200146 21 350 3.2 16.1 0.00 0.00 0.00 47 1014.5
20260505195646 21 77 3.2 16.1 0.00 0.00 0.00 47 1014.6
20260505195146 21 139 1.6 11.3 0.00 0.00 0.00 48 1014.6
20260505194646 20 109 3.2 11.3 0.00 0.00 0.00 48 1014.6
20260505194146 20 344 1.6 11.3 0.00 0.00 0.00 48 1014.6
20260505193648 20 50 3.2 11.3 0.00 0.00 0.00 49 1014.7
20260505193146 20 123 1.6 9.7 0.00 0.00 0.00 48 1014.7
20260505192646 20 181 3.2 11.3 0.00 0.00 0.00 48 1014.8
20260505192146 20 103 3.2 11.3 0.00 0.00 0.00 51 1014.7
20260505191542 20 70 1.6 9.7 0.00 0.00 0.00 51 1014.6
20260505191042 20 59 3.2 16.1 0.00 0.00 0.00 49 1014.6
20260505190542 20 75 3.2 16.1 0.00 0.00 0.00 52 1014.7
20260505185542 20 93 1.6 8.0 0.00 0.00 0.00 48 1014.7